FW1790 Weather Reports


Display with metric or nautical units.
time (UTC)temp
F
wind
direction
speed
MPH
gust
MPH
rain 1hr
in
rain 24hr
in
rain mn
in
humidity
%
barometer
mb
20260502130720 50 169 5.0 6.0 0.00 0.00 0.00 51 1020.0
20260502130221 49 189 7.0 9.0 0.00 0.00 0.00 52 1020.0
20260502123720 49 174 5.0 7.0 0.00 0.00 0.00 57 1020.0
20260502123221 49 170 7.0 9.0 0.00 0.00 0.00 57 1020.0
20260502122720 49 164 6.0 9.0 0.00 0.00 0.00 57 1020.0
20260502122220 49 157 6.0 7.0 0.00 0.00 0.00 57 1020.0
20260502121721 49 173 6.0 6.0 0.00 0.00 0.00 57 1020.0
20260502121220 49 172 6.0 8.0 0.00 0.00 0.00 58 1020.0
20260502120720 50 166 8.0 9.0 0.00 0.00 0.00 58 1020.0
20260502120220 50 164 5.0 7.0 0.00 0.00 0.00 58 1020.0
20260502115720 50 160 6.0 8.0 0.00 0.00 0.00 59 1020.0
20260502115221 50 160 6.0 8.0 0.00 0.00 0.00 59 1020.0
20260502114721 50 160 7.0 9.0 0.00 0.00 0.00 59 1020.0
20260502114221 50 165 7.0 9.0 0.00 0.00 0.00 59 1020.0
20260502113720 50 165 6.0 8.0 0.00 0.00 0.00 59 1020.0
20260502113221 50 157 6.0 7.0 0.00 0.00 0.00 58 1020.0
20260502112723 50 158 6.0 8.0 0.00 0.00 0.00 59 1020.0
20260502112220 51 163 7.0 9.0 0.00 0.00 0.00 59 1020.0
20260502111720 50 165 7.0 9.0 0.00 0.00 0.00 59 1020.0
20260502111220 50 165 6.0 9.0 0.00 0.00 0.00 62 1020.0
20260502110720 50 157 5.0 7.0 0.00 0.00 0.00 62 1020.0
20260502110223 50 158 6.0 8.0 0.00 0.00 0.00 62 1020.0
20260502105721 50 167 6.0 8.0 0.00 0.00 0.00 62 1020.0
20260502105221 51 183 6.0 7.0 0.00 0.00 0.00 59 1020.0
20260502104720 51 185 4.0 6.0 0.00 0.00 0.00 56 1020.0
20260502104220 51 171 5.0 7.0 0.00 0.00 0.00 54 1020.0
20260502103720 51 175 5.0 7.0 0.00 0.00 0.00 51 1020.0
20260502103222 51 162 6.0 8.0 0.00 0.00 0.00 51 1020.0
20260502102720 51 163 4.0 5.0 0.00 0.00 0.00 53 1020.0
20260502102221 52 174 4.0 9.0 0.00 0.00 0.00 52 1020.0
20260502101720 52 180 6.0 8.0 0.00 0.00 0.00 50 1020.0
20260502101220 52 178 6.0 8.0 0.00 0.00 0.00 52 1020.0
20260502100720 52 183 6.0 9.0 0.00 0.00 0.00 51 1020.0
20260502100221 52 185 6.0 9.0 0.00 0.00 0.00 50 1020.0
20260502091220 49 158 3.0 4.0 0.00 0.00 0.00 47 1020.0
20260502090720 49 200 3.0 3.0 0.00 0.00 0.00 46 1020.0
20260502090220 49 190 3.0 3.0 0.00 0.00 0.00 45 1020.0
20260502071220 48 257 4.0 5.0 0.00 0.00 0.00 50 1020.0
20260502070720 48 257 3.0 3.0 0.00 0.00 0.00 50 1020.0
20260502070221 48 136 1.0 2.0 0.00 0.00 0.00 50 1021.0
20260502065247 48 248 3.0 4.0 0.00 0.00 0.00 49 1020.0
20260502064720 48 256 4.0 5.0 0.00 0.00 0.00 48 1020.0
20260502064221 49 251 5.0 6.0 0.00 0.00 0.00 48 1020.0
20260502063720 49 255 4.0 4.0 0.00 0.00 0.00 47 1020.0
20260502063220 49 262 4.0 5.0 0.00 0.00 0.00 46 1020.0
20260502062720 50 250 3.0 4.0 0.00 0.00 0.00 46 1020.0
20260502062221 50 252 4.0 5.0 0.00 0.00 0.00 45 1020.0
20260502061720 50 248 5.0 7.0 0.00 0.00 0.00 45 1020.0
20260502061220 50 248 4.0 5.0 0.00 0.00 0.00 46 1020.0
20260502060721 50 245 4.0 4.0 0.00 0.00 0.00 45 1020.0
20260502060220 51 258 2.0 3.0 0.00 0.00 0.00 45 1020.0
20260502055720 52 266 1.0 2.0 0.00 0.00 0.00 44 1020.0
20260502055221 52 268 4.0 4.0 0.00 0.00 0.00 41 1020.0
20260502054720 51 266 4.0 4.0 0.00 0.00 0.00 43 1020.0
20260502054220 51 267 3.0 4.0 0.00 0.00 0.00 44 1020.0
20260502053720 52 269 4.0 5.0 0.00 0.00 0.00 42 1020.0
20260502053220 52 264 4.0 5.0 0.00 0.00 0.00 42 1020.0
20260502052720 52 261 3.0 4.0 0.00 0.00 0.00 42 1020.0
20260502052222 52 264 3.0 4.0 0.00 0.00 0.00 42 1020.0
20260502051720 52 259 4.0 4.0 0.00 0.00 0.00 41 1020.0
20260502051220 53 269 2.0 3.0 0.00 0.00 0.00 41 1020.0
20260502050720 53 277 3.0 4.0 0.00 0.00 0.00 40 1020.0
20260502050221 53 270 3.0 4.0 0.00 0.00 0.00 39 1020.0
20260502045720 53 261 4.0 5.0 0.00 0.00 0.00 40 1020.0
20260502045220 53 256 3.0 4.0 0.00 0.00 0.00 40 1020.0
20260502044720 53 256 3.0 4.0 0.00 0.00 0.00 40 1020.0
20260502044220 53 255 4.0 4.0 0.00 0.00 0.00 40 1020.0
20260502043720 53 262 4.0 4.0 0.00 0.00 0.00 40 1020.0
20260502043221 53 278 2.0 3.0 0.00 0.00 0.00 40 1020.0
20260502042720 54 267 3.0 4.0 0.00 0.00 0.00 39 1020.0
20260502042220 54 269 3.0 3.0 0.00 0.00 0.00 38 1020.0
20260502041720 55 257 3.0 3.0 0.00 0.00 0.00 37 1020.0
20260502041226 55 268 2.0 3.0 0.00 0.00 0.00 36 1020.0
20260502040720 55 269 3.0 4.0 0.00 0.00 0.00 36 1020.0
20260502040220 55 267 2.0 2.0 0.00 0.00 0.00 36 1020.0
20260502035721 55 0 0.0 0.0 0.00 0.00 0.00 35 1020.0
20260502035221 56 0 0.0 0.0 0.00 0.00 0.00 34 1020.0
20260502034720 55 123 2.0 2.0 0.00 0.00 0.00 35 1020.0
20260502034222 55 340 0.0 2.0 0.00 0.00 0.00 36 1020.0
20260502033720 56 307 2.0 4.0 0.00 0.00 0.00 36 1020.0
20260502033220 57 265 2.0 4.0 0.00 0.00 0.00 34 1019.0
20260502032720 57 299 2.0 2.0 0.00 0.00 0.00 32 1019.0
20260502032221 58 295 2.0 3.0 0.00 0.00 0.00 32 1019.0
20260502031721 58 294 2.0 4.0 0.00 0.00 0.00 31 1019.0
20260502031220 58 277 2.0 4.0 0.00 0.00 0.00 31 1019.0
20260502030721 58 302 2.0 3.0 0.00 0.00 0.00 30 1019.0
20260502030220 58 316 1.0 2.0 0.00 0.00 0.00 30 1019.0
20260502025721 59 323 1.0 2.0 0.00 0.00 0.00 30 1019.0
20260502025220 59 310 2.0 3.0 0.00 0.00 0.00 29 1019.0
20260502024720 59 313 2.0 3.0 0.00 0.00 0.00 29 1019.0
20260502024221 59 310 2.0 3.0 0.00 0.00 0.00 29 1019.0
20260502023721 60 321 2.0 3.0 0.00 0.00 0.00 29 1019.0
20260502023220 60 313 1.0 2.0 0.00 0.00 0.00 28 1019.0
20260502022721 60 319 2.0 4.0 0.00 0.00 0.00 28 1019.0
20260502022220 61 328 2.0 4.0 0.00 0.00 0.00 27 1019.0
20260502021720 61 324 2.0 6.0 0.00 0.00 0.00 27 1019.0
20260502021220 61 333 4.0 7.0 0.00 0.00 0.00 26 1018.0
20260502020720 62 329 3.0 5.0 0.00 0.00 0.00 27 1018.0
20260502020230 62 336 5.0 8.0 0.00 0.00 0.00 26 1018.0
20260502015721 62 344 5.0 9.0 0.00 0.00 0.00 26 1018.0
20260502015220 63 341 7.0 11.0 0.00 0.00 0.00 26 1018.0
20260502014720 63 329 6.0 8.0 0.00 0.00 0.00 26 1018.0
20260502014220 63 337 6.0 12.0 0.00 0.00 0.00 26 1018.0
20260502013720 63 339 4.0 7.0 0.00 0.00 0.00 26 1018.0
20260502013221 63 352 7.0 11.0 0.00 0.00 0.00 26 1018.0
20260502012720 63 7 8.0 12.0 0.00 0.00 0.00 26 1018.0
20260502012221 64 354 6.0 11.0 0.00 0.00 0.00 26 1018.0
20260502011720 64 345 8.0 12.0 0.00 0.00 0.00 26 1018.0
20260502011220 64 13 6.0 11.0 0.00 0.00 0.00 26 1018.0
20260502010720 64 354 6.0 10.0 0.00 0.00 0.00 26 1018.0
20260502010222 64 8 8.0 11.0 0.00 0.00 0.00 26 1018.0
20260502005720 64 3 9.0 13.0 0.00 0.00 0.00 25 1018.0
20260502005221 64 326 4.0 6.0 0.00 0.00 0.00 25 1018.0
20260502004720 64 5 8.0 10.0 0.00 0.00 0.00 25 1018.0
20260502004220 65 0 9.0 12.0 0.00 0.00 0.00 25 1018.0
20260502003720 65 356 6.0 10.0 0.00 0.00 0.00 25 1018.0
20260502003221 65 351 5.0 9.0 0.00 0.00 0.00 25 1018.0
20260502002723 65 352 7.0 12.0 0.00 0.00 0.00 24 1018.0
20260502002220 65 344 5.0 11.0 0.00 0.00 0.00 25 1018.0
20260502001720 65 341 6.0 9.0 0.00 0.00 0.00 24 1018.0
20260502001220 65 347 6.0 9.0 0.00 0.00 0.00 24 1018.0
20260502000720 65 339 3.0 9.0 0.00 0.00 0.00 25 1018.0
20260502000221 65 3 6.0 8.0 0.00 0.00 0.00 25 1018.0
20260501235722 65 330 6.0 10.0 0.00 0.00 0.00 24 1018.0
20260501235220 65 24 6.0 11.0 0.00 0.00 0.00 25 1018.0
20260501234720 65 1 12.0 16.0 0.00 0.00 0.00 24 1018.0
20260501234220 65 331 2.0 2.0 0.00 0.00 0.00 24 1018.0
20260501233721 65 356 8.0 12.0 0.00 0.00 0.00 24 1018.0
20260501233220 65 347 4.0 7.0 0.00 0.00 0.00 24 1018.0
20260501232721 65 350 8.0 13.0 0.00 0.00 0.00 24 1018.0
20260501232220 65 40 4.0 6.0 0.00 0.00 0.00 24 1018.0
20260501231721 65 351 6.0 10.0 0.00 0.00 0.00 24 1018.0
20260501231220 65 326 6.0 10.0 0.00 0.00 0.00 23 1018.0
20260501230720 65 5 4.0 6.0 0.00 0.00 0.00 23 1018.0
20260501230220 66 336 6.0 9.0 0.00 0.00 0.00 23 1018.0
20260501225720 66 13 3.0 9.0 0.00 0.00 0.00 23 1018.0
20260501225222 65 343 4.0 9.0 0.00 0.00 0.00 22 1018.0
20260501224720 65 334 2.0 3.0 0.00 0.00 0.00 23 1018.0
20260501224220 65 356 6.0 8.0 0.00 0.00 0.00 22 1018.0
20260501223720 65 41 6.0 9.0 0.00 0.00 0.00 23 1018.0
20260501223221 65 352 8.0 11.0 0.00 0.00 0.00 22 1018.0
20260501222721 65 36 9.0 11.0 0.00 0.00 0.00 22 1018.0
20260501222220 65 356 6.0 8.0 0.00 0.00 0.00 23 1018.0
20260501221721 65 15 3.0 6.0 0.00 0.00 0.00 24 1018.0
20260501221220 65 8 9.0 12.0 0.00 0.00 0.00 23 1018.0
20260501220720 66 349 8.0 11.0 0.00 0.00 0.00 23 1018.0
20260501220220 67 331 4.0 9.0 0.00 0.00 0.00 23 1018.0
20260501215721 66 322 6.0 9.0 0.00 0.00 0.00 22 1018.0
20260501215221 66 291 5.0 7.0 0.00 0.00 0.00 22 1018.0
20260501214720 66 249 5.0 7.0 0.00 0.00 0.00 22 1018.0
20260501214221 65 314 2.0 5.0 0.00 0.00 0.00 24 1018.0
20260501213721 65 342 2.0 4.0 0.00 0.00 0.00 24 1018.0
20260501213220 65 76 8.0 10.0 0.00 0.00 0.00 24 1018.0
20260501212720 65 71 4.0 8.0 0.00 0.00 0.00 23 1018.0
20260501212220 65 27 1.0 3.0 0.00 0.00 0.00 22 1018.0
20260501211720 65 321 1.0 3.0 0.00 0.00 0.00 23 1018.0
20260501211220 65 359 5.0 9.0 0.00 0.00 0.00 22 1018.0
20260501210722 65 56 5.0 9.0 0.00 0.00 0.00 24 1018.0
20260501210221 65 337 4.0 10.0 0.00 0.00 0.00 24 1018.0
20260501205720 65 69 6.0 10.0 0.00 0.00 0.00 23 1018.0
20260501205221 66 53 2.0 6.0 0.00 0.00 0.00 23 1018.0
20260501204720 66 348 3.0 5.0 0.00 0.00 0.00 23 1018.0
20260501204221 65 286 1.0 3.0 0.00 0.00 0.00 23 1018.0
20260501203720 65 49 2.0 4.0 0.00 0.00 0.00 24 1018.0
20260501203220 65 252 4.0 5.0 0.00 0.00 0.00 23 1018.0
20260501202721 64 310 0.0 1.0 0.00 0.00 0.00 23 1018.0
20260501202221 64 289 2.0 4.0 0.00 0.00 0.00 23 1018.0
20260501201720 64 328 5.0 8.0 0.00 0.00 0.00 23 1018.0
20260501201220 64 327 4.0 9.0 0.00 0.00 0.00 24 1018.0
20260501200720 63 349 5.0 9.0 0.00 0.00 0.00 24 1018.0
20260501200220 63 264 5.0 8.0 0.00 0.00 0.00 24 1018.0
20260501195720 63 50 2.0 5.0 0.00 0.00 0.00 23 1018.0
20260501195220 63 351 2.0 5.0 0.00 0.00 0.00 23 1018.0
20260501194720 63 236 7.0 11.0 0.00 0.00 0.00 23 1018.0
20260501194220 63 246 3.0 7.0 0.00 0.00 0.00 23 1018.0
20260501193720 63 167 1.0 3.0 0.00 0.00 0.00 23 1018.0
20260501193221 62 37 5.0 7.0 0.00 0.00 0.00 24 1019.0
20260501192720 63 47 4.0 7.0 0.00 0.00 0.00 24 1019.0
20260501192220 63 43 4.0 7.0 0.00 0.00 0.00 24 1018.0
20260501191721 63 42 1.0 4.0 0.00 0.00 0.00 24 1018.0
20260501191220 62 29 4.0 7.0 0.00 0.00 0.00 23 1018.0
20260501190720 62 86 5.0 7.0 0.00 0.00 0.00 23 1019.0
20260501190221 62 45 7.0 10.0 0.00 0.00 0.00 23 1019.0
20260501185720 61 44 4.0 6.0 0.00 0.00 0.00 24 1019.0
20260501185222 62 55 4.0 6.0 0.00 0.00 0.00 23 1019.0
20260501184720 62 331 3.0 6.0 0.00 0.00 0.00 22 1019.0
20260501184222 61 347 2.0 5.0 0.00 0.00 0.00 24 1019.0
20260501183720 61 297 2.0 4.0 0.00 0.00 0.00 24 1019.0
20260501183220 61 285 4.0 6.0 0.00 0.00 0.00 24 1019.0
20260501182720 61 9 7.0 9.0 0.00 0.00 0.00 23 1019.0
20260501182220 60 79 4.0 5.0 0.00 0.00 0.00 25 1019.0
20260501181721 60 42 5.0 7.0 0.00 0.00 0.00 25 1019.0
20260501181220 60 16 7.0 9.0 0.00 0.00 0.00 26 1019.0
20260501180720 60 354 2.0 4.0 0.00 0.00 0.00 27 1019.0
20260501180221 60 343 6.0 8.0 0.00 0.00 0.00 26 1019.0
20260501175720 60 302 4.0 7.0 0.00 0.00 0.00 27 1019.0
20260501175220 60 346 2.0 4.0 0.00 0.00 0.00 27 1019.0
20260501174721 60 2 5.0 8.0 0.00 0.00 0.00 27 1019.0
20260501174220 60 294 3.0 4.0 0.00 0.00 0.00 27 1019.0
20260501173720 60 333 3.0 5.0 0.00 0.00 0.00 28 1019.0
20260501173220 60 42 4.0 5.0 0.00 0.00 0.00 28 1019.0
20260501172721 59 27 2.0 3.0 0.00 0.00 0.00 30 1019.0
20260501172221 59 7 3.0 4.0 0.00 0.00 0.00 30 1019.0
20260501171720 58 13 3.0 5.0 0.00 0.00 0.00 30 1019.0
20260501171220 58 305 4.0 5.0 0.00 0.00 0.00 29 1019.0
20260501170722 58 295 5.0 7.0 0.00 0.00 0.00 29 1019.0
20260501170220 58 68 2.0 3.0 0.00 0.00 0.00 31 1019.0
20260501165721 58 58 1.0 3.0 0.00 0.00 0.00 29 1019.0
20260501165221 58 356 4.0 6.0 0.00 0.00 0.00 30 1019.0
20260501164720 58 18 0.0 2.0 0.00 0.00 0.00 33 1019.0
20260501164221 58 256 1.0 3.0 0.00 0.00 0.00 31 1019.0
20260501163721 58 265 1.0 3.0 0.00 0.00 0.00 32 1019.0
20260501163221 58 21 3.0 4.0 0.00 0.00 0.00 33 1019.0
20260501162720 58 127 3.0 4.0 0.00 0.00 0.00 31 1019.0
20260501162221 57 4 0.0 1.0 0.00 0.00 0.00 34 1019.0
20260501161720 57 259 3.0 4.0 0.00 0.00 0.00 34 1019.0
20260501161221 57 82 2.0 4.0 0.00 0.00 0.00 35 1019.0
20260501160722 57 351 1.0 2.0 0.00 0.00 0.00 36 1019.0
20260501160220 56 150 1.0 2.0 0.00 0.00 0.00 36 1019.0
20260501155721 56 18 1.0 2.0 0.00 0.00 0.00 37 1019.0
20260501155220 56 358 1.0 2.0 0.00 0.00 0.00 37 1019.0
20260501154721 55 352 3.0 4.0 0.00 0.00 0.00 38 1019.0
20260501154222 55 73 1.0 5.0 0.00 0.00 0.00 40 1019.0
20260501153720 54 8 3.0 4.0 0.00 0.00 0.00 40 1019.0
20260501153220 54 10 2.0 4.0 0.00 0.00 0.00 40 1019.0
20260501152720 54 54 2.0 3.0 0.00 0.00 0.00 41 1019.0
20260501152222 54 40 2.0 4.0 0.00 0.00 0.00 41 1019.0
20260501151720 55 40 3.0 4.0 0.00 0.00 0.00 41 1019.0
20260501151220 55 62 0.0 2.0 0.00 0.00 0.00 40 1019.0
20260501150721 54 213 1.0 2.0 0.00 0.00 0.00 41 1019.0
20260501150220 54 67 1.0 3.0 0.00 0.00 0.00 41 1019.0
20260501145720 54 278 1.0 2.0 0.00 0.00 0.00 40 1019.0
20260501145221 54 76 1.0 3.0 0.00 0.00 0.00 40 1019.0
20260501144221 50 224 2.0 2.0 0.00 0.00 0.00 44 1019.0
20260501143720 50 210 2.0 2.0 0.00 0.00 0.00 45 1019.0
20260501143221 50 242 1.0 3.0 0.00 0.00 0.00 46 1019.0
20260501142721 50 241 2.0 3.0 0.00 0.00 0.00 45 1019.0
20260501142222 50 238 2.0 3.0 0.00 0.00 0.00 45 1019.0
20260501141720 49 157 0.0 1.0 0.00 0.00 0.00 47 1019.0
20260501141220 49 57 0.0 2.0 0.00 0.00 0.00 49 1019.0
20260501140722 48 139 2.0 3.0 0.00 0.00 0.00 47 1019.0
20260501140221 48 179 1.0 2.0 0.00 0.00 0.00 48 1019.0
20260501135723 47 227 0.0 2.0 0.00 0.00 0.00 49 1019.0
20260501135221 46 248 2.0 2.0 0.00 0.00 0.00 48 1019.0
20260501134720 46 197 2.0 3.0 0.00 0.00 0.00 49 1019.0